Simultaneous Nadir Overpasses (SNOs) Predictions

Prediction of SNOs between NOAA-20 and METOP-C Satellite Orbit:

Table of predicted SNOs for the next 14.0 days since TLE Epoch: 11/19/2022
Index Date (NOAA-20) Time (NOAA-20) Lat,Lon (NOAA-20) SZA (NOAA-20 ) Date (METOP-C) Time (METOP-C) Lat,Lon (METOP-C) SZA (METOP-C ) Distance(km) Time Diff (sec)
1 11/26/2022 19:27:05 -73.45, 58.49 85.50 11/26/2022 19:28:12 -73.38, 61.27 85.64 88.48 67
2 11/26/2022 20:17:46 73.22,-133.68 94.27 11/26/2022 20:18:55 73.21,-131.79 94.20 60.90 69
3 11/26/2022 21:08:29 -73.16, 33.77 85.79 11/26/2022 21:09:39 -73.11, 35.33 85.89 50.62 70
4 11/26/2022 21:59:10 72.93,-158.42 93.97 11/26/2022 22:00:23 72.89,-157.82 93.91 20.03 73
5 11/26/2022 22:49:53 -72.87, 9.03 86.09 11/26/2022 22:51:06 -72.84, 9.41 86.14 12.90 73
6 11/26/2022 23:40:37 72.78, 176.51 93.83 11/26/2022 23:41:47 72.76, 176.58 93.80 3.29 70
7 11/27/2022 00:31:21 -72.78, -16.15 86.18 11/27/2022 00:32:29 -72.77, -16.08 86.19 2.49 68
8 11/27/2022 01:22:06 72.74, 151.23 93.80 11/27/2022 01:23:09 72.74, 151.20 93.80 0.88 63
9 11/27/2022 02:12:50 -72.73, -41.44 86.21 11/27/2022 02:13:51 -72.75, -41.47 86.20 1.80 61
10 11/27/2022 03:03:36 72.75, 125.84 93.82 11/27/2022 03:04:31 72.72, 125.82 93.79 3.09 55
11 11/27/2022 03:54:20 -72.74, -66.83 86.19 11/27/2022 03:55:13 -72.73, -66.85 86.21 1.73 53
12 11/27/2022 04:45:06 72.76, 100.45 93.84 11/27/2022 04:45:52 72.75, 100.54 93.83 3.18 46
13 11/27/2022 05:35:50 -72.75, -92.22 86.17 11/27/2022 05:36:34 -72.76, -92.13 86.16 3.20 44
14 11/27/2022 06:26:35 72.71, 75.16 93.81 11/27/2022 06:27:14 72.73, 75.16 93.82 1.90 39
15 11/27/2022 07:17:19 -72.71,-117.51 86.20 11/27/2022 07:17:56 -72.73,-117.51 86.17 3.27 37
16 11/27/2022 08:08:05 72.72, 49.77 93.83 11/27/2022 08:08:36 72.71, 49.78 93.82 1.30 31
17 11/27/2022 08:58:49 -72.71,-142.90 86.18 11/27/2022 08:59:18 -72.71,-142.89 86.18 0.17 29
18 11/27/2022 09:49:34 72.68, 24.48 93.80 11/27/2022 09:49:58 72.69, 24.39 93.81 3.22 24
19 11/27/2022 10:40:18 -72.72,-168.29 86.15 11/27/2022 10:40:39 -72.69,-168.27 86.19 3.13 21
20 11/27/2022 11:31:03 72.69, -0.91 93.82 11/27/2022 11:31:19 72.67, -0.99 93.80 3.39 16
21 11/27/2022 12:21:47 -72.68, 166.43 86.19 11/27/2022 12:22:01 -72.67, 166.34 86.19 2.87 14
22 11/27/2022 13:12:33 72.70, -26.30 93.84 11/27/2022 13:12:40 72.70, -26.27 93.85 1.10 7
23 11/27/2022 14:03:17 -72.69, 141.04 86.17 11/27/2022 14:03:22 -72.70, 141.06 86.15 2.00 5
24 11/27/2022 14:54:03 72.70, -51.69 93.86 11/27/2022 14:54:02 72.68, -51.65 93.84 3.02 1
25 11/27/2022 15:44:47 -72.69, 115.65 86.14 11/27/2022 15:44:44 -72.68, 115.68 86.16 1.85 3
26 11/27/2022 16:35:32 72.66, -76.97 93.83 11/27/2022 16:35:24 72.66, -77.03 93.83 1.93 8
27 11/27/2022 17:26:16 -72.65, 90.36 86.18 11/27/2022 17:26:06 -72.66, 90.30 86.16 2.24 10
28 11/27/2022 18:17:02 72.67,-102.36 93.85 11/27/2022 18:16:45 72.69,-102.31 93.87 2.84 17
29 11/27/2022 19:07:46 -72.66, 64.97 86.16 11/27/2022 19:07:28 -72.64, 64.92 86.17 2.79 18
30 11/27/2022 19:58:32 72.68,-127.75 93.87 11/27/2022 19:58:07 72.67,-127.69 93.87 2.33 25
31 11/27/2022 20:49:16 -72.67, 39.58 86.13 11/27/2022 20:48:49 -72.67, 39.64 86.13 1.99 27
32 11/27/2022 21:40:01 72.63,-153.04 93.84 11/27/2022 21:39:29 72.65,-153.07 93.86 1.81 32
33 11/27/2022 22:30:45 -72.62, 14.29 86.17 11/27/2022 22:30:11 -72.65, 14.26 86.14 2.95 34
34 11/27/2022 23:21:31 72.64,-178.43 93.86 11/27/2022 23:20:51 72.63,-178.46 93.85 1.93 40
35 11/28/2022 00:12:15 -72.63, -11.10 86.15 11/28/2022 00:11:33 -72.63, -11.13 86.15 1.07 42
36 11/28/2022 01:03:01 72.65, 156.18 93.88 11/28/2022 01:02:12 72.66, 156.27 93.89 3.01 49
37 11/28/2022 01:53:45 -72.64, -36.49 86.12 11/28/2022 01:52:54 -72.66, -36.40 86.10 3.38 51
38 11/28/2022 02:44:30 72.61, 130.89 93.85 11/28/2022 02:43:34 72.63, 130.88 93.89 3.17 56
39 11/28/2022 03:35:15 -72.65, -61.88 86.10 11/28/2022 03:34:16 -72.64, -61.79 86.11 3.29 59
40 11/28/2022 04:26:00 72.61, 105.50 93.87 11/28/2022 04:24:56 72.61, 105.50 93.88 0.05 64
41 11/28/2022 05:16:44 -72.61, -87.17 86.14 11/28/2022 05:15:38 -72.62, -87.17 86.12 1.17 66
42 11/28/2022 06:07:30 72.62, 80.11 93.89 11/28/2022 06:06:18 72.59, 80.12 93.87 3.25 72
43 11/28/2022 06:58:14 -72.61,-112.56 86.12 11/28/2022 06:57:00 -72.59,-112.55 86.13 2.05 74
44 11/28/2022 07:48:56 72.43, 55.13 93.70 11/28/2022 07:47:43 72.42, 54.43 93.72 23.56 73
45 11/28/2022 08:39:39 -72.37,-137.44 86.36 11/28/2022 08:38:26 -72.37,-138.34 86.33 30.52 73
46 11/28/2022 09:30:20 72.13, 30.34 93.40 11/28/2022 09:29:11 72.09, 28.45 93.42 64.78 69
47 11/28/2022 10:21:03 -72.07,-162.23 86.66 11/28/2022 10:19:54 -72.04,-164.32 86.62 71.56 69



Historial Predications of SNOs between NOAA-20 and METOP-C
